TKJ3NR LTFJ-LTAU

Flight info

Callsign TKJ3NR
Flight time 0h 59m
Altitude 37000
Route VICEN1J/06L VICEN T57 VEVUD UT341 BAG UG8 GOBIT UL614 MARTI W76 SARIZ
Aircraft B738/M-SDE2E3FGHIRWXY/LB1

Departure

Time 2026-04-26 11:08
Airport Istanbul Sabiha Gökçen International Airport (LTFJ)

Arrival

Time 2026-04-26 12:08
Airport Kayseri Erkilet International Airport (LTAU)
Time Latitude Longitude Altitude Speed Heading
2026-04-26 10:37 40.90679 29.31763 310 ft 0 kts 334°
2026-04-26 10:55 40.90671 29.31769 310 ft 4 kts 334°
2026-04-26 10:55 40.90647 29.31784 308 ft 4 kts 333°
2026-04-26 10:56 40.90623 29.31800 309 ft 4 kts 335°
2026-04-26 10:56 40.90598 29.31815 309 ft 4 kts 337°
2026-04-26 10:56 40.90580 29.31825 310 ft 0 kts 339°
2026-04-26 11:00 40.90590 29.31829 310 ft 5 kts 24°
2026-04-26 11:00 40.90607 29.31905 310 ft 11 kts 106°
2026-04-26 11:00 40.90551 29.31958 310 ft 10 kts 154°
2026-04-26 11:01 40.90494 29.32001 310 ft 9 kts 133°
2026-04-26 11:01 40.90493 29.32082 310 ft 9 kts 67°
2026-04-26 11:01 40.90520 29.32156 310 ft 9 kts 63°
2026-04-26 11:01 40.90547 29.32231 310 ft 9 kts 64°
2026-04-26 11:02 40.90579 29.32317 310 ft 11 kts 64°
2026-04-26 11:02 40.90577 29.32413 310 ft 11 kts 128°
2026-04-26 11:02 40.90535 29.32450 310 ft 3 kts 153°
2026-04-26 11:02 40.90524 29.32457 310 ft 0 kts 153°
2026-04-26 11:03 40.90523 29.32457 310 ft 0 kts 153°
2026-04-26 11:03 40.90515 29.32463 310 ft 4 kts 153°
2026-04-26 11:03 40.90482 29.32485 311 ft 7 kts 153°
2026-04-26 11:03 40.90442 29.32498 312 ft 3 kts 205°
2026-04-26 11:04 40.90426 29.32472 312 ft 4 kts 242°
2026-04-26 11:04 40.90418 29.32451 312 ft 2 kts 244°
2026-04-26 11:04 40.90413 29.32436 312 ft 2 kts 243°
2026-04-26 11:04 40.90409 29.32425 312 ft 2 kts 243°
2026-04-26 11:05 40.90407 29.32421 312 ft 0 kts 243°
2026-04-26 11:07 40.90406 29.32419 312 ft 1 kts 243°
2026-04-26 11:07 40.90317 29.32181 312 ft 65 kts 244°
2026-04-26 11:08 40.90014 29.31355 310 ft 132 kts 244°
2026-04-26 11:08 40.89529 29.30063 446 ft 174 kts 243°
2026-04-26 11:08 40.89006 29.28627 1297 ft 172 kts 245°
2026-04-26 11:08 40.88477 29.27132 2051 ft 178 kts 245°
2026-04-26 11:09 40.87959 29.25662 2829 ft 186 kts 244°
2026-04-26 11:09 40.87363 29.23983 3165 ft 217 kts 244°
2026-04-26 11:09 40.86684 29.22071 3432 ft 238 kts 244°
2026-04-26 11:09 40.85962 29.20049 3876 ft 250 kts 244°
2026-04-26 11:10 40.85155 29.17951 4459 ft 259 kts 233°
2026-04-26 11:10 40.83792 29.16473 5303 ft 255 kts 201°
2026-04-26 11:10 40.82047 29.16069 5988 ft 263 kts 174°
2026-04-26 11:10 40.80272 29.16711 6683 ft 269 kts 157°
2026-04-26 11:11 40.78554 29.17776 7427 ft 273 kts 154°
2026-04-26 11:11 40.76850 29.18892 8165 ft 276 kts 154°
2026-04-26 11:11 40.75137 29.20046 8917 ft 281 kts 148°
2026-04-26 11:11 40.73663 29.21776 9637 ft 286 kts 134°
2026-04-26 11:12 40.72576 29.24022 10273 ft 296 kts 109°
2026-04-26 11:12 40.72041 29.26720 10487 ft 319 kts 103°
2026-04-26 11:12 40.71584 29.29669 10722 ft 339 kts 102°
2026-04-26 11:12 40.71127 29.32783 11251 ft 348 kts 102°
2026-04-26 11:13 40.70661 29.35907 11974 ft 350 kts 102°
2026-04-26 11:13 40.70171 29.39090 12684 ft 355 kts 102°
2026-04-26 11:13 40.69667 29.42277 13383 ft 360 kts 102°
2026-04-26 11:13 40.69145 29.45495 14097 ft 363 kts 102°
2026-04-26 11:14 40.68603 29.48787 14823 ft 366 kts 102°
2026-04-26 11:14 40.68060 29.52057 15569 ft 369 kts 103°
2026-04-26 11:14 40.67502 29.55392 16290 ft 372 kts 103°
2026-04-26 11:14 40.67127 29.57622 16774 ft 374 kts 103°
2026-04-26 11:15 40.66366 29.62128 17730 ft 378 kts 103°
2026-04-26 11:15 40.65793 29.65517 18427 ft 382 kts 103°
2026-04-26 11:15 40.65215 29.68922 19045 ft 384 kts 103°
2026-04-26 11:15 40.64631 29.72361 19671 ft 387 kts 103°
2026-04-26 11:16 40.64043 29.75816 20287 ft 390 kts 103°
2026-04-26 11:16 40.63441 29.79348 20904 ft 392 kts 103°
2026-04-26 11:16 40.62843 29.82850 21494 ft 395 kts 103°
2026-04-26 11:16 40.62241 29.86368 22063 ft 398 kts 102°
2026-04-26 11:17 40.61622 29.89977 22634 ft 401 kts 102°
2026-04-26 11:17 40.61008 29.93545 23215 ft 404 kts 102°
2026-04-26 11:17 40.60383 29.97179 23738 ft 406 kts 102°
2026-04-26 11:17 40.59755 30.00816 24146 ft 410 kts 102°
2026-04-26 11:18 40.59121 30.04482 24587 ft 413 kts 102°
2026-04-26 11:18 40.58477 30.08196 25036 ft 416 kts 102°
2026-04-26 11:18 40.57835 30.11896 25485 ft 418 kts 102°
2026-04-26 11:18 40.57189 30.15612 25893 ft 421 kts 102°
2026-04-26 11:19 40.56527 30.19412 26319 ft 424 kts 102°
2026-04-26 11:19 40.55869 30.23177 26731 ft 427 kts 102°
2026-04-26 11:19 40.55204 30.26979 27126 ft 429 kts 102°
2026-04-26 11:19 40.54525 30.30850 27515 ft 432 kts 102°
2026-04-26 11:20 40.53849 30.34693 27916 ft 434 kts 102°
2026-04-26 11:20 40.53392 30.37288 28183 ft 436 kts 102°
2026-04-26 11:20 40.52474 30.42490 28688 ft 439 kts 102°
2026-04-26 11:20 40.51779 30.46421 29060 ft 442 kts 102°
2026-04-26 11:21 40.51083 30.50346 29437 ft 444 kts 102°
2026-04-26 11:21 40.50383 30.54287 29799 ft 446 kts 102°
2026-04-26 11:21 40.49677 30.58254 30143 ft 448 kts 102°
2026-04-26 11:21 40.48957 30.62283 30437 ft 450 kts 102°
2026-04-26 11:22 40.48244 30.66275 30729 ft 452 kts 102°
2026-04-26 11:22 40.47518 30.70329 31089 ft 452 kts 102°
2026-04-26 11:22 40.46802 30.74312 31508 ft 450 kts 102°
2026-04-26 11:22 40.46089 30.78277 31897 ft 449 kts 102°
2026-04-26 11:23 40.45364 30.82291 32227 ft 449 kts 102°
2026-04-26 11:23 40.44645 30.86270 32565 ft 449 kts 102°
2026-04-26 11:23 40.43918 30.90286 32937 ft 448 kts 102°
2026-04-26 11:23 40.43201 30.94237 33297 ft 448 kts 102°
2026-04-26 11:24 40.42484 30.98184 33625 ft 448 kts 102°
2026-04-26 11:24 40.41755 31.02184 33968 ft 447 kts 102°
2026-04-26 11:24 40.41033 31.06142 34277 ft 447 kts 102°
2026-04-26 11:24 40.40551 31.08777 34459 ft 447 kts 102°
2026-04-26 11:25 40.39826 31.12737 34678 ft 448 kts 102°
2026-04-26 11:25 40.38851 31.18053 35012 ft 449 kts 102°
2026-04-26 11:25 40.38361 31.20716 35184 ft 449 kts 102°
2026-04-26 11:25 40.37647 31.24682 35426 ft 449 kts 101°
2026-04-26 11:26 40.36986 31.28667 35643 ft 450 kts 101°
2026-04-26 11:26 40.36341 31.32708 35886 ft 450 kts 101°
2026-04-26 11:26 40.35708 31.36706 36130 ft 450 kts 101°
2026-04-26 11:26 40.35069 31.40714 36336 ft 450 kts 101°
2026-04-26 11:27 40.34417 31.44765 36594 ft 450 kts 101°
2026-04-26 11:27 40.33771 31.48741 36818 ft 450 kts 101°
2026-04-26 11:27 40.33109 31.52784 37027 ft 450 kts 102°
2026-04-26 11:27 40.32450 31.56797 36987 ft 454 kts 102°
2026-04-26 11:28 40.31117 31.64873 36996 ft 455 kts 102°
2026-04-26 11:28 40.29776 31.72970 36998 ft 453 kts 102°
2026-04-26 11:29 40.28441 31.80996 36997 ft 452 kts 102°
2026-04-26 11:29 40.27102 31.89015 36995 ft 450 kts 102°
2026-04-26 11:30 40.25604 31.96981 36999 ft 450 kts 105°
2026-04-26 11:30 40.23876 32.04784 36993 ft 449 kts 106°
2026-04-26 11:31 40.22123 32.12628 37005 ft 449 kts 106°
2026-04-26 11:31 40.20403 32.20446 36996 ft 449 kts 106°
2026-04-26 11:32 40.18681 32.28312 37005 ft 450 kts 106°
2026-04-26 11:32 40.16956 32.36176 37003 ft 451 kts 106°
2026-04-26 11:33 40.15224 32.44039 37005 ft 451 kts 106°
2026-04-26 11:33 40.14522 32.47214 37006 ft 452 kts 106°
2026-04-26 11:34 40.12789 32.55040 36997 ft 453 kts 106°
2026-04-26 11:34 40.11041 32.62904 37015 ft 453 kts 106°
2026-04-26 11:35 40.09275 32.70823 37019 ft 454 kts 106°
2026-04-26 11:35 40.07499 32.78764 37012 ft 455 kts 107°
2026-04-26 11:36 40.05473 32.86588 37023 ft 454 kts 111°
2026-04-26 11:36 40.03170 32.94257 37019 ft 454 kts 112°
2026-04-26 11:37 40.00865 33.01903 37021 ft 454 kts 111°
2026-04-26 11:37 39.98583 33.09579 37020 ft 454 kts 111°
2026-04-26 11:38 39.96314 33.17246 37018 ft 454 kts 111°
2026-04-26 11:38 39.94024 33.24965 37014 ft 454 kts 112°
2026-04-26 11:39 39.91742 33.32630 37011 ft 453 kts 112°
2026-04-26 11:39 39.89459 33.40275 37013 ft 453 kts 112°
2026-04-26 11:40 39.87174 33.47906 37014 ft 453 kts 112°
2026-04-26 11:40 39.84880 33.55546 37011 ft 453 kts 112°
2026-04-26 11:42 39.77949 33.87068 36219 ft 452 kts 105°
2026-04-26 11:43 39.77056 33.91010 35772 ft 449 kts 109°
2026-04-26 11:43 39.76027 33.94780 35368 ft 445 kts 110°
2026-04-26 11:43 39.74930 33.98550 34949 ft 441 kts 111°
2026-04-26 11:43 39.73842 34.02236 34550 ft 438 kts 111°
2026-04-26 11:44 39.72755 34.05949 34125 ft 435 kts 111°
2026-04-26 11:44 39.71701 34.09595 33682 ft 433 kts 110°
2026-04-26 11:44 39.70650 34.13261 33225 ft 430 kts 110°
2026-04-26 11:44 39.69622 34.16865 32806 ft 426 kts 110°
2026-04-26 11:45 39.68597 34.20467 32398 ft 423 kts 110°
2026-04-26 11:45 39.67587 34.24008 31999 ft 419 kts 111°
2026-04-26 11:45 39.66574 34.27559 31608 ft 416 kts 111°
2026-04-26 11:45 39.65577 34.31043 31214 ft 413 kts 111°
2026-04-26 11:46 39.64576 34.34540 30825 ft 410 kts 111°
2026-04-26 11:46 39.63577 34.38020 30444 ft 407 kts 111°
2026-04-26 11:46 39.62593 34.41446 30053 ft 405 kts 111°
2026-04-26 11:46 39.61612 34.44850 29569 ft 403 kts 111°
2026-04-26 11:47 39.60630 34.48253 29158 ft 399 kts 111°
2026-04-26 11:47 39.59668 34.51585 28765 ft 395 kts 111°
2026-04-26 11:47 39.58710 34.54896 28368 ft 392 kts 111°
2026-04-26 11:47 39.57752 34.58206 27981 ft 389 kts 111°
2026-04-26 11:48 39.56812 34.61452 27591 ft 386 kts 111°
2026-04-26 11:48 39.55863 34.64724 27194 ft 383 kts 112°
2026-04-26 11:48 39.54935 34.67921 26814 ft 380 kts 112°
2026-04-26 11:48 39.54002 34.71130 26442 ft 378 kts 112°
2026-04-26 11:49 39.53083 34.74288 26075 ft 375 kts 112°
2026-04-26 11:49 39.52168 34.77426 25704 ft 373 kts 112°
2026-04-26 11:49 39.51245 34.80589 25330 ft 371 kts 112°
2026-04-26 11:49 39.50339 34.83693 24963 ft 369 kts 112°
2026-04-26 11:50 39.49425 34.86816 24595 ft 368 kts 112°
2026-04-26 11:50 39.48529 34.89876 24238 ft 366 kts 112°
2026-04-26 11:50 39.47622 34.92970 23877 ft 365 kts 112°
2026-04-26 11:50 39.46733 34.96001 23482 ft 364 kts 112°
2026-04-26 11:51 39.45829 34.99079 23056 ft 363 kts 112°
2026-04-26 11:51 39.44937 35.02112 22678 ft 360 kts 112°
2026-04-26 11:51 39.44044 35.05147 22300 ft 358 kts 112°
2026-04-26 11:51 39.43162 35.08142 21925 ft 356 kts 112°
2026-04-26 11:52 39.42284 35.11116 21574 ft 354 kts 112°
2026-04-26 11:52 39.41699 35.13094 21332 ft 352 kts 112°
2026-04-26 11:52 39.40315 35.16835 20843 ft 346 kts 130°
2026-04-26 11:52 39.38610 35.18991 20517 ft 338 kts 148°
2026-04-26 11:53 39.36562 35.20390 20182 ft 333 kts 159°
2026-04-26 11:53 39.34411 35.21541 19827 ft 331 kts 161°
2026-04-26 11:53 39.32282 35.22647 19483 ft 330 kts 161°
2026-04-26 11:54 39.28051 35.24891 18803 ft 329 kts 160°
2026-04-26 11:54 39.25948 35.26031 18452 ft 328 kts 160°
2026-04-26 11:54 39.23831 35.27182 18068 ft 328 kts 160°
2026-04-26 11:54 39.21741 35.28319 17677 ft 327 kts 160°
2026-04-26 11:55 39.19647 35.29456 17226 ft 328 kts 160°
2026-04-26 11:55 39.17538 35.30598 16874 ft 326 kts 160°
2026-04-26 11:55 39.15464 35.31722 16530 ft 324 kts 160°
2026-04-26 11:55 39.13394 35.32843 16189 ft 323 kts 160°
2026-04-26 11:56 39.11312 35.33970 15853 ft 321 kts 160°
2026-04-26 11:56 39.09340 35.35036 15536 ft 319 kts 160°
2026-04-26 11:56 39.07326 35.36124 15213 ft 317 kts 160°
2026-04-26 11:56 39.05360 35.37355 14865 ft 319 kts 146°
2026-04-26 11:57 39.03838 35.39470 14554 ft 322 kts 122°
2026-04-26 11:57 39.03003 35.42093 14280 ft 321 kts 110°
2026-04-26 11:57 39.02342 35.44829 13950 ft 321 kts 108°
2026-04-26 11:57 39.01703 35.47586 13604 ft 320 kts 108°
2026-04-26 11:58 39.01069 35.50319 13239 ft 319 kts 108°
2026-04-26 11:58 39.00426 35.53057 12907 ft 318 kts 108°
2026-04-26 11:58 38.99787 35.55749 12571 ft 317 kts 109°
2026-04-26 11:58 38.99134 35.58471 12237 ft 316 kts 109°
2026-04-26 11:59 38.98483 35.61173 11906 ft 315 kts 109°
2026-04-26 11:59 38.97838 35.63844 11564 ft 315 kts 109°
2026-04-26 11:59 38.97184 35.66537 11207 ft 315 kts 109°
2026-04-26 11:59 38.96539 35.69197 10871 ft 314 kts 109°
2026-04-26 12:00 38.95885 35.71886 10548 ft 313 kts 109°
2026-04-26 12:00 38.95240 35.74537 10218 ft 312 kts 109°
2026-04-26 12:00 38.94593 35.77194 10038 ft 305 kts 109°
2026-04-26 12:00 38.93964 35.79770 9697 ft 304 kts 109°
2026-04-26 12:01 38.93329 35.82367 9359 ft 303 kts 110°
2026-04-26 12:01 38.92363 35.84716 9031 ft 299 kts 134°
2026-04-26 12:01 38.90751 35.86312 8831 ft 288 kts 156°
2026-04-26 12:01 38.88889 35.87094 8666 ft 279 kts 169°
2026-04-26 12:02 38.87019 35.87307 8480 ft 268 kts 194°
2026-04-26 12:02 38.85887 35.86732 8394 ft 258 kts 217°
2026-04-26 12:02 38.84470 35.84399 8185 ft 247 kts 244°
2026-04-26 12:02 38.83781 35.82411 8096 ft 236 kts 248°
2026-04-26 12:03 38.83223 35.80483 7902 ft 231 kts 252°
2026-04-26 12:03 38.82788 35.78559 7676 ft 225 kts 255°
2026-04-26 12:03 38.82397 35.76623 7392 ft 220 kts 256°
2026-04-26 12:03 38.82028 35.74760 7118 ft 216 kts 256°
2026-04-26 12:04 38.81660 35.72898 6842 ft 211 kts 256°
2026-04-26 12:04 38.81306 35.71113 6562 ft 206 kts 256°
2026-04-26 12:04 38.80960 35.69364 6318 ft 201 kts 256°
2026-04-26 12:04 38.80617 35.67628 6063 ft 197 kts 256°
2026-04-26 12:05 38.80287 35.65958 5799 ft 186 kts 257°
2026-04-26 12:05 38.79982 35.64413 5581 ft 171 kts 257°
2026-04-26 12:05 38.79701 35.62990 5345 ft 161 kts 257°
2026-04-26 12:05 38.79428 35.61622 5107 ft 156 kts 256°
2026-04-26 12:06 38.79107 35.60262 4797 ft 161 kts 253°
2026-04-26 12:06 38.78790 35.58886 4563 ft 160 kts 255°
2026-04-26 12:06 38.78528 35.57495 4415 ft 162 kts 258°
2026-04-26 12:06 38.78272 35.56093 4231 ft 163 kts 257°
2026-04-26 12:07 38.78010 35.54679 3985 ft 160 kts 258°
2026-04-26 12:07 38.77750 35.53298 3817 ft 162 kts 261°
2026-04-26 12:07 38.77485 35.51885 3597 ft 160 kts 259°
2026-04-26 12:07 38.77237 35.50533 3465 ft 149 kts 256°
2026-04-26 12:08 38.77013 35.49387 3466 ft 117 kts 256°
2026-04-26 12:08 38.76890 35.48740 3465 ft 18 kts 257°
2026-04-26 12:08 38.76850 35.48624 3466 ft 14 kts 209°
2026-04-26 12:08 38.76769 35.48639 3466 ft 7 kts 167°
2026-04-26 12:09 38.76765 35.48640 3466 ft 0 kts 167°
2026-04-26 12:09 38.76761 35.48641 3467 ft 2 kts 167°
2026-04-26 12:09 38.76741 35.48640 3467 ft 4 kts 196°
2026-04-26 12:10 38.76722 35.48608 3466 ft 6 kts 247°
2026-04-26 12:10 38.76709 35.48574 3466 ft 3 kts 210°
2026-04-26 12:10 38.76683 35.48577 3467 ft 4 kts 169°
2026-04-26 12:10 38.76657 35.48585 3466 ft 3 kts 166°
2026-04-26 12:11 38.76646 35.48588 3467 ft 1 kts 166°
2026-04-26 12:11 38.76641 35.48589 3467 ft 0 kts 166°